QPF
0.14 0.19 0.23 0.25 0.16 0.11 0.09 0.12 0.11 0.09 0.08 0.07 0.08 0.08 0.06 0.06 0.05 0.07 0.06 0.07 0.05 0.05 0.05 0.04 0.04 0.04 0.06 0.06 0.07 0.05 0.03 0.02 0.03 0.02 0.01 0.01 0.01 0.01 0.02 0.03 0.04 0.02 0.02
0.09 0.13 0.16 0.16 0.14 0.10 0.10 0.12 0.12 0.10 0.09 0.08 0.11 0.11 0.09 0.09 0.09 0.09 0.06 0.08 0.07 0.06 0.05 0.05 0.04 0.06 0.06 0.05 0.07 0.05 0.03 0.03 0.03 0.03 0.02 0.02 0.02 0.01 0.02 0.03 0.05 0.04 0.02
0.07 0.10 0.11 0.12 0.12 0.11 0.11 0.13 0.12 0.10 0.10 0.08 0.10 0.14 0.13 0.13 0.14 0.09 0.06 0.08 0.08 0.07 0.07 0.06 0.05 0.04 0.05 0.04 0.04 0.06 0.04 0.03 0.04 0.03 0.02 0.02 0.02 0.01 0.02 0.03 0.04 0.04 0.03
0.09 0.10 0.09 0.09 0.09 0.09 0.09 0.12 0.11 0.11 0.10 0.08 0.10 0.14 0.16 0.12 0.14 0.13 0.11 0.11 0.09 0.09 0.08 0.07 0.05 0.04 0.04 0.02 0.03 0.04 0.04 0.04 0.02 0.03 0.02 0.01 0.02 0.02 0.01 0.02 0.03 0.04 0.03
0.12 0.11 0.10 0.09 0.10 0.08 0.09 0.10 0.10 0.13 0.13 0.10 0.13 0.15 0.16 0.15 0.13 0.15 0.13 0.13 0.11 0.10 0.07 0.06 0.05 0.05 0.03 0.02 0.02 0.02 0.03 0.04 0.04 0.03 0.01 0.02 0.03 0.02 0.01 0.02 0.03 0.03 0.03
0.13 0.15 0.13 0.12 0.11 0.10 0.10 0.10 0.10 0.14 0.16 0.14 0.13 0.15 0.17 0.17 0.14 0.17 0.15 0.13 0.12 0.09 0.07 0.06 0.05 0.04 0.03 0.03 0.02 0.02 0.03 0.03 0.04 0.03 0.02 0.01 0.02 0.02 0.02 0.02 0.03 0.03 0.02
0.11 0.15 0.13 0.14 0.13 0.15 0.16 0.16 0.14 0.15 0.15 0.14 0.11 0.12 0.13 0.15 0.14 0.13 0.15 0.14 0.12 0.09 0.07 0.07 0.06 0.05 0.03 0.02 0.03 0.03 0.03 0.03 0.02 0.02 0.02 0.02 0.02 0.02 0.02 0.03 0.02 0.02 0.02
0.12 0.12 0.10 0.12 0.14 0.16 0.17 0.15 0.12 0.12 0.13 0.12 0.08 0.08 0.09 0.11 0.12 0.12 0.13 0.15 0.14 0.11 0.07 0.07 0.06 0.06 0.04 0.03 0.03 0.04 0.04 0.03 0.01 0.01 0.01 0.01 0.01 0.01 0.02 0.03 0.03 0.03 0.02
0.12 0.09 0.10 0.13 0.15 0.18 0.17 0.14 0.12 0.12 0.11 0.09 0.07 0.07 0.08 0.10 0.11 0.13 0.15 0.15 0.14 0.12 0.09 0.07 0.07 0.06 0.05 0.04 0.03 0.03 0.04 0.03 0.02 0.01 0.01 0.01 0.01 0.01 0.02 0.02 0.02 0.03 0.03
0.14 0.10 0.10 0.14 0.18 0.19 0.16 0.14 0.12 0.13 0.11 0.09 0.09 0.11 0.11 0.13 0.12 0.13 0.14 0.17 0.16 0.14 0.11 0.09 0.08 0.07 0.06 0.05 0.05 0.04 0.04 0.04 0.02 0.01 0.01 0.01 0.01 0.01 0.02 0.03 0.02 0.03 0.03
0.17 0.13 0.11 0.14 0.16 0.16 0.14 0.14 0.15 0.14 0.13 0.11 0.12 0.12 0.15 0.15 0.14 0.13 0.15 0.19 0.19 0.14 0.13 0.12 0.11 0.11 0.09 0.07 0.06 0.04 0.04 0.04 0.03 0.02 0.01 0.02 0.02 0.02 0.04 0.04 0.03 0.03 0.04
0.12 0.14 0.14 0.15 0.17 0.16 0.14 0.15 0.16 0.15 0.13 0.12 0.12 0.13 0.14 0.14 0.15 0.16 0.19 0.24 0.28 0.17 0.16 0.17 0.15 0.15 0.12 0.08 0.06 0.03 0.03 0.03 0.03 0.03 0.03 0.03 0.03 0.04 0.05 0.04 0.04 0.04 0.05
0.07 0.10 0.11 0.13 0.14 0.12 0.11 0.12 0.14 0.13 0.12 0.11 0.12 0.13 0.11 0.13 0.17 0.20 0.23 0.29 0.34 0.25 0.22 0.23 0.24 0.17 0.13 0.11 0.07 0.04 0.04 0.06 0.06 0.04 0.04 0.04 0.03 0.04 0.04 0.04 0.03 0.03 0.04
0.05 0.07 0.09 0.12 0.12 0.10 0.09 0.10 0.13 0.11 0.11 0.10 0.09 0.10 0.09 0.09 0.11 0.11 0.14 0.21 0.29 0.26 0.26 0.32 0.29 0.17 0.15 0.16 0.09 0.07 0.08 0.10 0.08 0.05 0.06 0.05 0.03 0.03 0.04 0.04 0.03 0.03 0.04
0.03 0.03 0.04 0.06 0.07 0.07 0.07 0.07 0.10 0.11 0.09 0.08 0.06 0.07 0.06 0.08 0.10 0.09 0.08 0.11 0.20 0.22 0.20 0.20 0.21 0.18 0.16 0.18 0.14 0.11 0.11 0.12 0.11 0.08 0.08 0.06 0.05 0.04 0.04 0.04 0.03 0.03 0.04
0.02 0.02 0.03 0.04 0.04 0.06 0.05 0.05 0.07 0.08 0.05 0.05 0.06 0.06 0.05 0.08 0.10 0.09 0.07 0.09 0.13 0.15 0.14 0.12 0.12 0.16 0.15 0.16 0.16 0.14 0.14 0.14 0.16 0.14 0.10 0.08 0.07 0.06 0.04 0.04 0.03 0.03 0.05
0.02 0.05 0.05 0.03 0.04 0.06 0.05 0.05 0.06 0.05 0.03 0.04 0.05 0.05 0.06 0.09 0.11 0.08 0.07 0.08 0.09 0.08 0.07 0.06 0.08 0.12 0.15 0.18 0.18 0.15 0.13 0.13 0.14 0.13 0.09 0.08 0.07 0.05 0.04 0.04 0.04 0.04 0.04
0.03 0.06 0.07 0.04 0.05 0.08 0.09 0.09 0.07 0.05 0.05 0.05 0.05 0.05 0.06 0.09 0.10 0.07 0.06 0.06 0.06 0.06 0.06 0.06 0.05 0.09 0.14 0.18 0.18 0.13 0.10 0.10 0.11 0.10 0.08 0.07 0.06 0.06 0.05 0.04 0.04 0.05 0.06
0.02 0.05 0.06 0.04 0.05 0.08 0.12 0.11 0.07 0.07 0.08 0.09 0.09 0.08 0.08 0.08 0.08 0.07 0.06 0.05 0.05 0.05 0.06 0.05 0.05 0.07 0.10 0.14 0.13 0.10 0.07 0.06 0.07 0.06 0.05 0.04 0.04 0.05 0.04 0.04 0.05 0.05 0.05
0.01 0.03 0.03 0.02 0.02 0.04 0.07 0.09 0.08 0.08 0.10 0.12 0.11 0.12 0.12 0.09 0.07 0.07 0.06 0.05 0.04 0.05 0.07 0.09 0.09 0.09 0.10 0.10 0.07 0.06 0.05 0.04 0.04 0.04 0.03 0.04 0.04 0.03 0.04 0.04 0.05 0.05 0.05
0.00 0.01 0.02 0.01 0.01 0.02 0.04 0.06 0.05 0.06 0.09 0.12 0.11 0.12 0.15 0.13 0.10 0.09 0.06 0.04 0.04 0.05 0.07 0.09 0.09 0.10 0.10 0.09 0.08 0.08 0.08 0.06 0.04 0.03 0.03 0.04 0.03 0.03 0.05 0.05 0.03 0.02 0.03
0.01 0.01 0.01 0.01 0.01 0.01 0.04 0.08 0.06 0.06 0.08 0.10 0.10 0.12 0.14 0.16 0.14 0.11 0.09 0.06 0.05 0.07 0.07 0.08 0.09 0.08 0.09 0.09 0.07 0.09 0.11 0.11 0.08 0.05 0.03 0.02 0.02 0.03 0.03 0.03 0.02 0.02 0.03
0.00 0.01 0.00 0.01 0.01 0.01 0.03 0.08 0.08 0.06 0.07 0.09 0.09 0.09 0.10 0.12 0.13 0.11 0.08 0.08 0.09 0.08 0.08 0.09 0.08 0.09 0.12 0.10 0.09 0.09 0.11 0.14 0.12 0.09 0.05 0.04 0.04 0.05 0.04 0.03 0.02 0.01 0.02
0.00 0.01 0.01 0.02 0.02 0.02 0.04 0.08 0.09 0.06 0.06 0.06 0.06 0.07 0.10 0.13 0.11 0.09 0.08 0.11 0.12 0.09 0.09 0.08 0.08 0.10 0.11 0.13 0.14 0.13 0.14 0.13 0.11 0.10 0.09 0.08 0.07 0.05 0.03 0.02 0.01 0.01 0.02
0.02 0.07 0.06 0.06 0.05 0.04 0.04 0.07 0.10 0.07 0.06 0.05 0.05 0.08 0.12 0.12 0.08 0.07 0.07 0.09 0.11 0.11 0.11 0.10 0.09 0.09 0.07 0.09 0.11 0.13 0.12 0.10 0.07 0.07 0.07 0.07 0.06 0.03 0.03 0.02 0.01 0.01 0.01
0.03 0.11 0.13 0.09 0.08 0.05 0.05 0.05 0.09 0.08 0.06 0.06 0.05 0.06 0.09 0.09 0.07 0.07 0.07 0.08 0.09 0.09 0.10 0.10 0.08 0.07 0.09 0.09 0.08 0.07 0.08 0.06 0.06 0.07 0.05 0.05 0.05 0.03 0.02 0.02 0.01 0.01 0.01
MSLP
1008.95 1008.65 1008.53 1008.59 1008.80 1009.10 1009.42 1009.70 1009.93 1010.11 1010.28 1010.51 1010.83 1011.27 1011.81 1012.41 1013.03 1013.59 1014.05 1014.40 1014.66 1014.86 1015.04 1015.24 1015.48 1015.77 1016.06 1016.34 1016.56 1016.71 1016.79 1016.83 1016.85 1016.91 1017.00 1017.16 1017.37 1017.60 1017.82 1018.01 1018.16 1018.27 1018.36
1008.88 1008.62 1008.56 1008.68 1008.95 1009.30 1009.65 1009.96 1010.19 1010.36 1010.54 1010.77 1011.10 1011.55 1012.12 1012.75 1013.38 1013.95 1014.42 1014.76 1015.00 1015.18 1015.35 1015.55 1015.79 1016.07 1016.37 1016.64 1016.86 1017.00 1017.07 1017.09 1017.11 1017.17 1017.28 1017.46 1017.69 1017.94 1018.18 1018.38 1018.53 1018.62 1018.68
1008.58 1008.38 1008.40 1008.62 1008.98 1009.42 1009.85 1010.21 1010.49 1010.69 1010.88 1011.12 1011.45 1011.90 1012.46 1013.07 1013.69 1014.24 1014.68 1015.01 1015.24 1015.42 1015.60 1015.81 1016.07 1016.37 1016.68 1016.95 1017.15 1017.28 1017.33 1017.34 1017.35 1017.41 1017.54 1017.73 1017.98 1018.25 1018.50 1018.70 1018.84 1018.93 1018.97
1008.03 1007.90 1008.01 1008.34 1008.84 1009.40 1009.95 1010.41 1010.77 1011.04 1011.27 1011.53 1011.86 1012.30 1012.83 1013.41 1013.98 1014.49 1014.90 1015.21 1015.44 1015.63 1015.83 1016.08 1016.37 1016.69 1017.00 1017.27 1017.46 1017.56 1017.58 1017.57 1017.57 1017.63 1017.76 1017.97 1018.23 1018.51 1018.77 1018.98 1019.12 1019.20 1019.25
1007.29 1007.21 1007.41 1007.87 1008.50 1009.22 1009.91 1010.52 1011.00 1011.36 1011.67 1011.96 1012.31 1012.74 1013.23 1013.76 1014.28 1014.75 1015.12 1015.42 1015.65 1015.86 1016.10 1016.37 1016.69 1017.03 1017.34 1017.60 1017.76 1017.82 1017.82 1017.78 1017.76 1017.81 1017.95 1018.16 1018.44 1018.73 1019.00 1019.22 1019.37 1019.45 1019.50
1006.43 1006.39 1006.67 1007.24 1008.02 1008.89 1009.75 1010.51 1011.14 1011.63 1012.03 1012.39 1012.77 1013.19 1013.66 1014.15 1014.62 1015.04 1015.39 1015.67 1015.91 1016.15 1016.41 1016.72 1017.06 1017.40 1017.70 1017.92 1018.04 1018.06 1018.01 1017.94 1017.91 1017.95 1018.09 1018.32 1018.62 1018.92 1019.20 1019.43 1019.58 1019.67 1019.74
1005.63 1005.61 1005.94 1006.61 1007.51 1008.52 1009.53 1010.45 1011.22 1011.84 1012.35 1012.79 1013.22 1013.65 1014.11 1014.56 1014.99 1015.38 1015.70 1015.98 1016.23 1016.49 1016.78 1017.10 1017.44 1017.77 1018.04 1018.21 1018.27 1018.23 1018.14 1018.04 1017.99 1018.03 1018.19 1018.44 1018.75 1019.07 1019.37 1019.60 1019.76 1019.86 1019.94
1005.06 1005.04 1005.41 1006.14 1007.12 1008.24 1009.37 1010.41 1011.32 1012.06 1012.67 1013.19 1013.66 1014.11 1014.56 1014.99 1015.39 1015.74 1016.05 1016.32 1016.58 1016.85 1017.16 1017.48 1017.81 1018.11 1018.33 1018.43 1018.43 1018.33 1018.19 1018.06 1018.00 1018.05 1018.22 1018.50 1018.84 1019.19 1019.49 1019.74 1019.90 1020.01 1020.09
1004.92 1004.90 1005.27 1006.03 1007.05 1008.22 1009.42 1010.54 1011.53 1012.36 1013.04 1013.61 1014.12 1014.58 1015.01 1015.42 1015.79 1016.11 1016.40 1016.66 1016.92 1017.20 1017.50 1017.82 1018.13 1018.38 1018.54 1018.58 1018.51 1018.35 1018.17 1018.01 1017.94 1018.01 1018.21 1018.51 1018.88 1019.25 1019.58 1019.83 1020.00 1020.10 1020.17
1005.31 1005.29 1005.66 1006.41 1007.42 1008.59 1009.80 1010.94 1011.95 1012.81 1013.52 1014.11 1014.62 1015.07 1015.48 1015.85 1016.18 1016.47 1016.73 1016.97 1017.22 1017.49 1017.79 1018.09 1018.37 1018.57 1018.68 1018.66 1018.53 1018.33 1018.10 1017.93 1017.86 1017.94 1018.16 1018.49 1018.88 1019.28 1019.63 1019.89 1020.05 1020.15 1020.20
1006.26 1006.24 1006.60 1007.32 1008.29 1009.41 1010.56 1011.66 1012.63 1013.46 1014.15 1014.72 1015.20 1015.61 1015.97 1016.29 1016.56 1016.80 1017.02 1017.23 1017.46 1017.72 1018.00 1018.28 1018.53 1018.70 1018.76 1018.70 1018.53 1018.29 1018.04 1017.85 1017.78 1017.86 1018.09 1018.44 1018.86 1019.27 1019.63 1019.89 1020.05 1020.14 1020.17
1007.66 1007.68 1008.03 1008.70 1009.59 1010.62 1011.67 1012.67 1013.56 1014.31 1014.93 1015.44 1015.85 1016.20 1016.49 1016.74 1016.95 1017.12 1017.29 1017.46 1017.66 1017.89 1018.15 1018.42 1018.65 1018.80 1018.84 1018.75 1018.55 1018.29 1018.02 1017.82 1017.73 1017.81 1018.04 1018.39 1018.80 1019.22 1019.58 1019.85 1020.01 1020.08 1020.10
1009.34 1009.41 1009.76 1010.37 1011.18 1012.08 1013.01 1013.88 1014.65 1015.29 1015.81 1016.23 1016.56 1016.83 1017.04 1017.21 1017.35 1017.46 1017.57 1017.69 1017.85 1018.06 1018.30 1018.55 1018.76 1018.91 1018.94 1018.84 1018.64 1018.37 1018.09 1017.86 1017.76 1017.80 1018.01 1018.33 1018.72 1019.13 1019.48 1019.75 1019.90 1019.97 1019.98
1011.08 1011.20 1011.55 1012.11 1012.82 1013.61 1014.39 1015.12 1015.76 1016.28 1016.70 1017.03 1017.28 1017.47 1017.60 1017.70 1017.77 1017.82 1017.87 1017.95 1018.08 1018.25 1018.47 1018.70 1018.92 1019.06 1019.10 1019.01 1018.81 1018.53 1018.24 1017.99 1017.84 1017.84 1017.99 1018.26 1018.61 1018.98 1019.31 1019.57 1019.73 1019.81 1019.82
1012.64 1012.82 1013.18 1013.69 1014.31 1014.97 1015.63 1016.23 1016.75 1017.17 1017.50 1017.74 1017.93 1018.05 1018.14 1018.19 1018.20 1018.21 1018.22 1018.26 1018.35 1018.50 1018.69 1018.91 1019.12 1019.26 1019.31 1019.23 1019.04 1018.76 1018.45 1018.17 1017.97 1017.90 1017.97 1018.16 1018.44 1018.76 1019.06 1019.31 1019.48 1019.57 1019.59
1013.87 1014.10 1014.45 1014.91 1015.45 1016.02 1016.56 1017.06 1017.49 1017.83 1018.09 1018.29 1018.43 1018.53 1018.59 1018.61 1018.61 1018.59 1018.58 1018.59 1018.66 1018.78 1018.96 1019.16 1019.35 1019.49 1019.54 1019.47 1019.28 1019.00 1018.67 1018.35 1018.08 1017.93 1017.91 1018.00 1018.20 1018.45 1018.71 1018.94 1019.11 1019.22 1019.27
1014.69 1014.95 1015.29 1015.71 1016.18 1016.66 1017.13 1017.55 1017.92 1018.21 1018.44 1018.62 1018.75 1018.85 1018.90 1018.93 1018.93 1018.91 1018.90 1018.91 1018.96 1019.07 1019.22 1019.40 1019.57 1019.69 1019.73 1019.66 1019.47 1019.18 1018.83 1018.46 1018.14 1017.90 1017.78 1017.77 1017.87 1018.04 1018.25 1018.45 1018.62 1018.75 1018.83
1015.16 1015.43 1015.75 1016.12 1016.52 1016.95 1017.35 1017.73 1018.05 1018.33 1018.55 1018.72 1018.86 1018.96 1019.04 1019.09 1019.11 1019.12 1019.13 1019.15 1019.20 1019.29 1019.42 1019.56 1019.70 1019.80 1019.82 1019.73 1019.54 1019.24 1018.87 1018.47 1018.09 1017.78 1017.56 1017.45 1017.45 1017.54 1017.68 1017.85 1018.01 1018.15 1018.25
1015.37 1015.62 1015.91 1016.24 1016.59 1016.97 1017.34 1017.68 1017.98 1018.24 1018.45 1018.63 1018.77 1018.89 1018.98 1019.06 1019.12 1019.16 1019.20 1019.24 1019.30 1019.38 1019.49 1019.60 1019.70 1019.76 1019.75 1019.65 1019.44 1019.14 1018.77 1018.35 1017.93 1017.56 1017.27 1017.07 1016.97 1016.97 1017.03 1017.15 1017.28 1017.42 1017.54
1015.42 1015.66 1015.92 1016.21 1016.53 1016.86 1017.20 1017.52 1017.80 1018.05 1018.25 1018.41 1018.54 1018.65 1018.75 1018.84 1018.93 1019.00 1019.08 1019.15 1019.22 1019.30 1019.39 1019.47 1019.52 1019.54 1019.50 1019.38 1019.18 1018.88 1018.52 1018.11 1017.68 1017.28 1016.93 1016.65 1016.47 1016.37 1016.36 1016.40 1016.49 1016.60 1016.72
1015.41 1015.64 1015.88 1016.14 1016.43 1016.75 1017.06 1017.36 1017.62 1017.84 1018.01 1018.13 1018.23 1018.31 1018.39 1018.47 1018.56 1018.66 1018.76 1018.86 1018.95 1019.04 1019.11 1019.16 1019.18 1019.17 1019.10 1018.97 1018.76 1018.49 1018.16 1017.77 1017.37 1016.96 1016.58 1016.25 1015.99 1015.81 1015.70 1015.66 1015.69 1015.75 1015.85
1015.35 1015.60 1015.84 1016.09 1016.37 1016.68 1016.98 1017.26 1017.50 1017.68 1017.80 1017.87 1017.90 1017.91 1017.94 1017.99 1018.06 1018.17 1018.28 1018.40 1018.51 1018.60 1018.67 1018.70 1018.70 1018.66 1018.57 1018.44 1018.26 1018.02 1017.74 1017.41 1017.04 1016.66 1016.27 1015.91 1015.58 1015.32 1015.12 1014.99 1014.93 1014.93 1014.98
1015.23 1015.51 1015.77 1016.04 1016.33 1016.65 1016.95 1017.23 1017.45 1017.59 1017.65 1017.64 1017.59 1017.53 1017.48 1017.47 1017.50 1017.58 1017.70 1017.83 1017.95 1018.05 1018.12 1018.14 1018.12 1018.07 1017.98 1017.86 1017.71 1017.53 1017.31 1017.05 1016.75 1016.41 1016.04 1015.66 1015.29 1014.95 1014.66 1014.43 1014.28 1014.20 1014.20
1014.98 1015.31 1015.61 1015.92 1016.24 1016.58 1016.91 1017.20 1017.41 1017.52 1017.53 1017.46 1017.33 1017.18 1017.04 1016.96 1016.94 1016.99 1017.09 1017.21 1017.34 1017.45 1017.52 1017.54 1017.52 1017.46 1017.38 1017.29 1017.18 1017.06 1016.92 1016.74 1016.51 1016.23 1015.90 1015.52 1015.12 1014.71 1014.34 1014.02 1013.77 1013.61 1013.55
1014.55 1014.94 1015.29 1015.65 1016.02 1016.40 1016.77 1017.09 1017.31 1017.42 1017.41 1017.29 1017.10 1016.88 1016.67 1016.51 1016.44 1016.44 1016.51 1016.62 1016.75 1016.85 1016.92 1016.94 1016.92 1016.87 1016.81 1016.74 1016.69 1016.63 1016.57 1016.47 1016.33 1016.11 1015.83 1015.47 1015.05 1014.60 1014.16 1013.76 1013.43 1013.20 1013.07
1013.95 1014.38 1014.78 1015.19 1015.61 1016.05 1016.47 1016.83 1017.10 1017.24 1017.24 1017.11 1016.89 1016.62 1016.37 1016.16 1016.03 1015.99 1016.02 1016.11 1016.22 1016.32 1016.38 1016.40 1016.38 1016.34 1016.29 1016.25 1016.24 1016.24 1016.25 1016.23 1016.17 1016.02 1015.79 1015.46 1015.05 1014.59 1014.11 1013.65 1013.26 1012.97 1012.79
Thickness
5808 5808 5801 5802 5801 5799 5798 5797 5797 5796 5795 5794 5793 5791 5790 5788 5787 5785 5783 5782 5780 5779 5777 5776 5775 5774 5773 5771 5770 5769 5768 5766 5765 5763 5762 5761 5760 5759 5758 5757 5757 5757 5753
5811 5807 5801 5799 5798 5797 5797 5796 5795 5794 5793 5792 5791 5790 5788 5786 5785 5783 5781 5780 5778 5777 5776 5775 5774 5773 5772 5770 5769 5767 5766 5765 5764 5763 5762 5761 5759 5758 5757 5757 5757 5756 5752
5810 5807 5802 5799 5797 5796 5796 5795 5794 5793 5792 5791 5789 5788 5786 5784 5782 5781 5779 5778 5776 5775 5774 5773 5772 5771 5770 5769 5768 5767 5765 5764 5763 5763 5763 5764 5761 5757 5756 5755 5754 5753 5751
5809 5807 5803 5798 5797 5795 5794 5793 5792 5791 5790 5789 5788 5786 5784 5782 5780 5779 5777 5776 5774 5773 5772 5771 5770 5770 5769 5768 5767 5766 5765 5764 5764 5764 5767 5767 5763 5757 5755 5754 5753 5752 5751
5808 5806 5801 5797 5795 5794 5793 5791 5791 5790 5789 5788 5786 5785 5783 5781 5779 5777 5775 5774 5773 5771 5770 5769 5769 5768 5768 5767 5766 5765 5765 5764 5764 5766 5768 5766 5762 5757 5755 5754 5752 5751 5750
5807 5805 5800 5796 5794 5793 5791 5790 5789 5788 5787 5786 5785 5783 5782 5780 5778 5776 5774 5772 5771 5770 5769 5768 5768 5767 5767 5766 5765 5764 5764 5764 5765 5768 5767 5766 5763 5757 5755 5754 5752 5751 5749
5806 5805 5800 5795 5793 5791 5790 5789 5788 5787 5786 5785 5783 5782 5780 5779 5777 5775 5773 5771 5770 5769 5768 5767 5767 5766 5766 5765 5764 5764 5763 5764 5768 5768 5766 5765 5761 5757 5755 5753 5752 5751 5749
5806 5804 5799 5794 5792 5790 5789 5788 5786 5786 5785 5783 5782 5780 5779 5777 5776 5774 5773 5771 5769 5768 5767 5766 5766 5765 5764 5764 5763 5763 5763 5764 5767 5768 5767 5766 5760 5757 5755 5753 5752 5750 5749
5807 5804 5800 5796 5793 5790 5788 5787 5785 5784 5784 5782 5780 5779 5778 5777 5775 5774 5772 5770 5769 5767 5766 5766 5765 5764 5764 5763 5763 5763 5763 5764 5768 5768 5767 5765 5759 5757 5755 5753 5752 5751 5749
5804 5803 5799 5797 5795 5792 5790 5786 5784 5783 5782 5780 5779 5778 5777 5776 5775 5773 5772 5770 5769 5767 5766 5765 5765 5764 5763 5763 5764 5764 5764 5764 5769 5769 5768 5764 5759 5757 5755 5754 5752 5751 5749
5798 5799 5798 5796 5795 5794 5792 5788 5785 5783 5781 5780 5779 5778 5777 5777 5776 5774 5772 5770 5769 5767 5766 5765 5764 5763 5763 5764 5764 5764 5765 5768 5769 5769 5767 5762 5759 5757 5756 5754 5752 5751 5749
5794 5795 5795 5795 5794 5793 5792 5788 5786 5785 5782 5781 5780 5779 5778 5777 5776 5775 5772 5770 5769 5767 5765 5764 5764 5763 5764 5767 5766 5765 5768 5769 5769 5769 5767 5762 5760 5758 5756 5754 5753 5752 5750
5796 5794 5794 5793 5793 5792 5790 5788 5786 5785 5783 5781 5780 5779 5778 5777 5776 5775 5773 5771 5769 5767 5767 5765 5765 5766 5767 5768 5768 5768 5768 5769 5769 5769 5767 5762 5760 5758 5757 5755 5753 5752 5750
5795 5793 5793 5792 5790 5789 5788 5788 5786 5785 5783 5782 5780 5779 5778 5777 5776 5776 5774 5773 5771 5769 5767 5767 5766 5766 5766 5766 5766 5767 5767 5768 5769 5769 5766 5763 5760 5759 5757 5756 5754 5752 5751
5794 5793 5792 5790 5788 5787 5786 5786 5786 5784 5784 5783 5781 5779 5778 5778 5777 5776 5774 5772 5771 5769 5768 5767 5767 5766 5765 5765 5766 5767 5767 5767 5768 5768 5767 5763 5761 5759 5758 5756 5755 5753 5752
5795 5793 5793 5790 5788 5787 5786 5785 5785 5785 5783 5783 5781 5779 5778 5778 5776 5775 5774 5771 5771 5769 5769 5767 5767 5765 5765 5766 5766 5766 5766 5767 5767 5766 5767 5765 5762 5760 5758 5757 5755 5754 5753
5796 5794 5792 5791 5790 5788 5787 5786 5786 5785 5784 5783 5781 5779 5777 5777 5775 5774 5773 5772 5771 5770 5768 5767 5766 5766 5765 5765 5765 5766 5767 5766 5767 5766 5767 5766 5765 5761 5759 5757 5756 5755 5754
5798 5794 5792 5793 5790 5787 5786 5785 5786 5785 5784 5783 5782 5780 5778 5776 5775 5774 5774 5773 5771 5770 5769 5767 5767 5766 5764 5764 5765 5766 5766 5766 5766 5766 5767 5766 5765 5765 5761 5759 5757 5755 5754
5798 5795 5792 5791 5789 5787 5786 5785 5784 5784 5783 5783 5782 5781 5778 5776 5775 5774 5774 5772 5770 5770 5769 5768 5767 5765 5764 5763 5764 5765 5766 5766 5766 5767 5767 5766 5766 5765 5764 5760 5758 5757 5755
5799 5795 5792 5791 5789 5787 5785 5784 5784 5783 5784 5783 5783 5780 5778 5777 5775 5774 5773 5771 5770 5770 5768 5767 5764 5764 5763 5762 5764 5764 5765 5767 5767 5767 5767 5767 5766 5765 5765 5763 5761 5759 5756
5800 5796 5793 5790 5789 5787 5786 5784 5783 5782 5783 5783 5782 5780 5779 5777 5776 5773 5774 5771 5770 5769 5767 5767 5765 5763 5762 5763 5761 5760 5763 5766 5766 5766 5767 5767 5767 5766 5765 5763 5763 5762 5760
5801 5797 5794 5791 5790 5788 5787 5785 5785 5784 5784 5784 5783 5780 5779 5777 5776 5775 5772 5772 5771 5768 5766 5765 5764 5763 5763 5763 5760 5756 5754 5757 5761 5766 5766 5765 5766 5766 5765 5764 5762 5761 5760
5802 5799 5797 5793 5791 5788 5787 5787 5785 5783 5782 5782 5780 5779 5779 5778 5776 5774 5773 5772 5771 5770 5768 5765 5764 5762 5759 5761 5762 5758 5753 5751 5757 5763 5764 5765 5764 5764 5765 5764 5763 5761 5760
5805 5802 5798 5794 5791 5788 5787 5785 5783 5780 5779 5780 5780 5781 5780 5778 5776 5775 5773 5772 5770 5771 5768 5767 5767 5764 5760 5758 5760 5761 5760 5759 5754 5754 5760 5763 5763 5762 5763 5764 5763 5761 5760
5808 5804 5800 5795 5791 5788 5786 5784 5781 5780 5780 5781 5780 5778 5777 5777 5776 5775 5773 5772 5770 5770 5768 5767 5765 5764 5763 5760 5759 5759 5758 5757 5758 5753 5752 5756 5759 5762 5763 5762 5762 5762 5760
5808 5804 5800 5794 5790 5787 5785 5784 5780 5778 5777 5776 5775 5775 5775 5776 5776 5774 5773 5771 5770 5770 5768 5766 5765 5764 5762 5761 5760 5760 5757 5756 5755 5754 5752 5753 5754 5758 5760 5761 5761 5761 5760